SP2WPY-13 Weather Reports


time (UTC)temp
F
wind
direction
speed
knots
gust
knots
rain 1hr
in
rain 24hr
in
rain mn
in
humidity
%
barometer
mb
20260503053609 68 243 7.8 0.0 0.00 0.00 0.00 34 1016.2
20260503053134 67 238 5.2 0.0 0.00 0.00 0.00 35 1016.2
20260503052615 66 235 4.3 0.0 0.00 0.00 0.00 35 1016.3
20260503052141 66 243 7.8 0.0 0.00 0.00 0.00 35 1016.2
20260503051621 66 233 4.3 0.0 0.00 0.00 0.00 35 1016.2
20260503051101 66 241 5.2 0.0 0.00 0.00 0.00 35 1016.3
20260503050628 66 232 4.3 0.0 0.00 0.00 0.00 35 1016.3
20260503050108 65 236 4.3 0.0 0.00 0.00 0.00 36 1016.3
20260503045634 65 241 4.3 0.0 0.00 0.00 0.00 36 1016.3
20260503045114 64 226 4.3 0.0 0.00 0.00 0.00 37 1016.3
20260503044640 64 222 7.0 0.0 0.00 0.00 0.00 37 1016.4
20260503044120 64 237 4.3 0.0 0.00 0.00 0.00 37 1016.3
20260503043646 64 238 4.3 0.0 0.00 0.00 0.00 37 1016.3
20260503043127 63 237 5.2 0.0 0.00 0.00 0.00 38 1016.3
20260503042607 63 234 6.1 0.0 0.00 0.00 0.00 38 1016.3
20260503042133 63 228 4.3 0.0 0.00 0.00 0.00 38 1016.3
20260503041614 63 219 5.2 0.0 0.00 0.00 0.00 38 1016.4
20260503041139 63 231 5.2 0.0 0.00 0.00 0.00 38 1016.4
20260503040619 62 243 7.0 0.0 0.00 0.00 0.00 39 1016.4
20260503040146 62 256 6.1 0.0 0.00 0.00 0.00 39 1016.4
20260503035626 62 226 3.5 0.0 0.00 0.00 0.00 39 1016.4
20260503035106 62 242 7.0 0.0 0.00 0.00 0.00 39 1016.4
20260503034632 62 218 3.5 0.0 0.00 0.00 0.00 39 1016.4
20260503034112 62 235 4.3 0.0 0.00 0.00 0.00 39 1016.4
20260503033638 61 233 4.3 0.0 0.00 0.00 0.00 40 1016.4
20260503033118 61 210 5.2 0.0 0.00 0.00 0.00 40 1016.4
20260503032645 62 223 6.1 0.0 0.00 0.00 0.00 40 1016.4
20260503032124 61 222 5.2 0.0 0.00 0.00 0.00 40 1016.5
20260503031605 61 216 6.1 0.0 0.00 0.00 0.00 40 1016.5
20260503031131 61 240 7.0 0.0 0.00 0.00 0.00 40 1016.5
20260503030612 61 234 6.1 0.0 0.00 0.00 0.00 40 1016.5
20260503030137 61 230 6.1 0.0 0.00 0.00 0.00 40 1016.6
20260503025617 61 235 5.2 0.0 0.00 0.00 0.00 40 1016.6
20260503025143 61 240 4.3 0.0 0.00 0.00 0.00 40 1016.6
20260503024624 62 238 6.1 0.0 0.00 0.00 0.00 40 1016.6
20260503024104 61 232 6.1 0.0 0.00 0.00 0.00 41 1016.6
20260503023630 61 237 5.2 0.0 0.00 0.00 0.00 41 1016.7
20260503023111 61 238 4.3 0.0 0.00 0.00 0.00 41 1016.7
20260503022637 61 247 6.1 0.0 0.00 0.00 0.00 41 1016.7
20260503022117 61 228 4.3 0.0 0.00 0.00 0.00 41 1016.7
20260503021643 61 235 4.3 0.0 0.00 0.00 0.00 41 1016.8
20260503021123 61 227 5.2 0.0 0.00 0.00 0.00 41 1016.8
20260503020603 62 238 5.2 0.0 0.00 0.00 0.00 41 1016.8
20260503020130 62 216 6.1 0.0 0.00 0.00 0.00 41 1016.8
20260503015610 61 249 6.1 0.0 0.00 0.00 0.00 41 1016.9
20260503015136 61 225 7.0 0.0 0.00 0.00 0.00 41 1016.8
20260503014616 61 204 3.5 0.0 0.00 0.00 0.00 42 1016.9
20260503014143 61 236 5.2 0.0 0.00 0.00 0.00 42 1016.9
20260503013623 61 225 4.3 0.0 0.00 0.00 0.00 42 1016.9
20260503013103 61 216 4.3 0.0 0.00 0.00 0.00 42 1016.9
20260503012629 61 224 5.2 0.0 0.00 0.00 0.00 43 1016.9
20260503012110 61 249 5.2 0.0 0.00 0.00 0.00 43 1016.9
20260503011635 61 226 3.5 0.0 0.00 0.00 0.00 43 1016.9
20260503011115 61 234 4.3 0.0 0.00 0.00 0.00 43 1017.1
20260503010641 61 244 4.3 0.0 0.00 0.00 0.00 43 1017.0
20260503010122 61 223 5.2 0.0 0.00 0.00 0.00 43 1017.1
20260503005602 61 205 4.3 0.0 0.00 0.00 0.00 44 1017.1
20260503005128 61 227 3.5 0.0 0.00 0.00 0.00 44 1017.2
20260503004609 61 226 4.3 0.0 0.00 0.00 0.00 44 1017.2
20260503004135 61 232 3.5 0.0 0.00 0.00 0.00 44 1017.3
20260503003615 61 251 4.3 0.0 0.00 0.00 0.00 44 1017.3
20260503003152 61 237 6.1 0.0 0.00 0.00 0.00 44 1017.3
20260503002621 61 230 3.5 0.0 0.00 0.00 0.00 44 1017.3
20260503002102 61 233 3.5 0.0 0.00 0.00 0.00 44 1017.5
20260503001627 61 226 6.1 0.0 0.00 0.00 0.00 44 1017.4
20260503001107 61 227 4.3 0.0 0.00 0.00 0.00 44 1017.4
20260503000634 61 226 5.2 0.0 0.00 0.00 0.00 44 1017.5
20260503000114 61 223 3.5 0.0 0.00 0.00 0.00 44 1017.5
20260502235639 61 219 4.3 0.0 0.00 0.00 0.00 44 1017.5
20260502235120 61 233 5.2 0.0 0.00 0.00 0.00 44 1017.6
20260502234601 61 235 5.2 0.0 0.00 0.00 0.00 44 1017.6
20260502234126 62 240 3.5 0.0 0.00 0.00 0.00 43 1017.7
20260502233606 62 223 3.5 0.0 0.00 0.00 0.00 43 1017.6
20260502233134 62 250 6.1 0.0 0.00 0.00 0.00 43 1017.7
20260502232613 62 247 4.3 0.0 0.00 0.00 0.00 43 1017.7
20260502232140 62 232 4.3 0.0 0.00 0.00 0.00 42 1017.8
20260502231620 62 230 6.1 0.0 0.00 0.00 0.00 42 1017.8
20260502231146 62 237 5.2 0.0 0.00 0.00 0.00 42 1017.8
20260502230627 62 241 4.3 0.0 0.00 0.00 0.00 42 1017.8
20260502230105 62 246 6.1 0.0 0.00 0.00 0.00 42 1017.9
20260502225632 62 246 6.1 0.0 0.00 0.00 0.00 42 1017.9
20260502225113 62 233 4.3 0.0 0.00 0.00 0.00 42 1018.0
20260502224639 62 236 5.2 0.0 0.00 0.00 0.00 42 1018.0
20260502224119 62 244 4.3 0.0 0.00 0.00 0.00 42 1018.1
20260502223645 62 240 5.2 0.0 0.00 0.00 0.00 42 1018.0
20260502223125 62 251 5.2 0.0 0.00 0.00 0.00 42 1018.1
20260502222606 62 243 6.1 0.0 0.00 0.00 0.00 42 1018.0
20260502222132 62 260 7.8 0.0 0.00 0.00 0.00 41 1018.1
20260502221612 62 244 5.2 0.0 0.00 0.00 0.00 41 1018.1
20260502221138 62 249 7.0 0.0 0.00 0.00 0.00 41 1018.1
20260502220618 62 271 5.2 0.0 0.00 0.00 0.00 40 1018.2
20260502220144 62 255 5.2 0.0 0.00 0.00 0.00 40 1018.1
20260502215624 62 279 6.1 0.0 0.00 0.00 0.00 40 1018.2
20260502215105 62 248 5.2 0.0 0.00 0.00 0.00 39 1018.2
20260502214630 62 267 4.3 0.0 0.00 0.00 0.00 38 1018.2
20260502214111 62 236 4.3 0.0 0.00 0.00 0.00 38 1018.3
20260502213636 62 238 5.2 0.0 0.00 0.00 0.00 37 1018.2
20260502213117 62 232 3.5 0.0 0.00 0.00 0.00 37 1018.3
20260502212643 63 253 5.2 0.0 0.00 0.00 0.00 37 1018.2
20260502212123 63 252 6.1 0.0 0.00 0.00 0.00 37 1018.3
20260502211604 63 229 3.5 0.0 0.00 0.00 0.00 36 1018.2
20260502211129 62 238 3.5 0.0 0.00 0.00 0.00 36 1018.3
20260502210610 62 221 3.5 0.0 0.00 0.00 0.00 36 1018.3
20260502210136 62 236 3.5 0.0 0.00 0.00 0.00 36 1018.3
20260502205617 61 217 5.2 0.0 0.00 0.00 0.00 36 1018.4
20260502205143 61 209 3.5 0.0 0.00 0.00 0.00 36 1018.4
20260502204623 60 207 2.6 0.0 0.00 0.00 0.00 36 1018.6
20260502204103 60 220 2.6 0.0 0.00 0.00 0.00 36 1018.5
20260502203629 60 193 2.6 0.0 0.00 0.00 0.00 36 1018.6
20260502203109 59 230 1.7 0.0 0.00 0.00 0.00 36 1018.6
20260502202636 59 208 1.7 0.0 0.00 0.00 0.00 37 1018.6
20260502202115 59 197 1.7 0.0 0.00 0.00 0.00 37 1018.6
20260502201643 59 192 1.7 0.0 0.00 0.00 0.00 37 1018.7
20260502201122 59 192 1.7 0.0 0.00 0.00 0.00 37 1018.7
20260502200602 59 186 2.6 0.0 0.00 0.00 0.00 37 1018.7
20260502200129 59 178 2.6 0.0 0.00 0.00 0.00 37 1018.7
20260502195609 59 184 1.7 0.0 0.00 0.00 0.00 37 1018.8
20260502195135 59 178 1.7 0.0 0.00 0.00 0.00 37 1018.7
20260502194616 59 191 1.7 0.0 0.00 0.00 0.00 38 1018.8
20260502194141 59 201 1.7 0.0 0.00 0.00 0.00 37 1018.8
20260502193621 59 205 1.7 0.0 0.00 0.00 0.00 37 1018.8
20260502193103 60 208 0.9 0.0 0.00 0.00 0.00 37 1019.0
20260502192627 60 218 0.9 0.0 0.00 0.00 0.00 37 1019.0
20260502192108 59 223 1.7 0.0 0.00 0.00 0.00 38 1019.1
20260502191634 59 217 0.9 0.0 0.00 0.00 0.00 38 1019.1
20260502191114 59 211 0.9 0.0 0.00 0.00 0.00 38 1019.1
20260502190640 59 216 0.9 0.0 0.00 0.00 0.00 38 1019.1
20260502190121 59 236 0.9 0.0 0.00 0.00 0.00 37 1019.2
20260502185601 59 237 0.9 0.0 0.00 0.00 0.00 37 1019.1
20260502185127 59 280 0.9 0.0 0.00 0.00 0.00 38 1019.1
20260502184607 60 301 1.7 0.0 0.00 0.00 0.00 37 1019.2
20260502184133 60 254 0.9 0.0 0.00 0.00 0.00 34 1019.1
20260502183614 60 213 0.9 0.0 0.00 0.00 0.00 33 1019.2
20260502183139 61 213 0.9 0.0 0.00 0.00 0.00 32 1019.1
20260502182620 62 211 0.0 0.0 0.00 0.00 0.00 33 1019.1
20260502182100 62 256 0.9 0.0 0.00 0.00 0.00 32 1019.1
20260502181627 63 221 0.9 0.0 0.00 0.00 0.00 30 1019.1
20260502181107 63 271 0.9 0.0 0.00 0.00 0.00 31 1019.1
20260502180632 64 302 0.9 0.0 0.00 0.00 0.00 30 1019.2
20260502180113 65 105 0.0 0.0 0.00 0.00 0.00 29 1019.1
20260502170106 70 119 1.7 0.0 0.00 0.00 0.00 26 1019.4
20260502164118 71 138 0.9 0.0 0.00 0.00 0.00 26 1019.6
20260502163644 72 29 3.5 0.0 0.00 0.00 0.00 25 1019.7
20260502163124 72 85 1.7 0.0 0.00 0.00 0.00 24 1019.7
20260502162605 73 95 2.6 0.0 0.00 0.00 0.00 24 1019.7
20260502162131 73 125 1.7 0.0 0.00 0.00 0.00 24 1019.8
20260502161611 73 105 2.6 0.0 0.00 0.00 0.00 25 1020.0
20260502161137 72 104 1.7 0.0 0.00 0.00 0.00 26 1020.0
20260502160617 72 103 2.6 0.0 0.00 0.00 0.00 26 1020.0
20260502160143 72 101 2.6 0.0 0.00 0.00 0.00 26 1020.0
20260502152123 73 116 6.1 0.0 0.00 0.00 0.00 25 1020.7
20260502151603 73 104 3.5 0.0 0.00 0.00 0.00 25 1020.8
20260502151129 73 93 1.7 0.0 0.00 0.00 0.00 25 1020.8
20260502150609 73 126 4.3 0.0 0.00 0.00 0.00 24 1020.9
20260502150136 73 126 2.6 0.0 0.00 0.00 0.00 24 1021.0
20260502140129 73 87 3.5 0.0 0.00 0.00 0.00 24 1021.5
20260502130640 76 51 5.2 0.0 0.00 0.00 0.00 24 1022.0
20260502130120 76 130 2.6 0.0 0.00 0.00 0.00 24 1022.0
20260502123612 76 123 4.3 0.0 0.00 0.00 0.00 24 1022.3
20260502123138 76 143 2.6 0.0 0.00 0.00 0.00 25 1022.5
20260502122619 75 112 5.2 0.0 0.00 0.00 0.00 25 1022.4
20260502122145 75 81 4.3 0.0 0.00 0.00 0.00 24 1022.6
20260502121625 77 112 5.2 0.0 0.00 0.00 0.00 23 1022.6
20260502121105 77 139 2.6 0.0 0.00 0.00 0.00 23 1022.6
20260502120632 77 121 5.2 0.0 0.00 0.00 0.00 23 1022.5
20260502120112 77 128 5.2 0.0 0.00 0.00 0.00 23 1022.7
20260502115638 78 111 5.2 0.0 0.00 0.00 0.00 22 1022.9
20260502115119 78 124 4.3 0.0 0.00 0.00 0.00 23 1022.9
20260502114644 78 169 4.3 0.0 0.00 0.00 0.00 23 1022.9
20260502114125 78 129 3.5 0.0 0.00 0.00 0.00 23 1023.0
20260502113604 78 118 4.3 0.0 0.00 0.00 0.00 23 1023.1
20260502113131 79 62 3.5 0.0 0.00 0.00 0.00 23 1023.2
20260502112611 79 126 1.7 0.0 0.00 0.00 0.00 24 1023.2
20260502112137 78 214 1.7 0.0 0.00 0.00 0.00 24 1023.3
20260502111619 77 106 2.6 0.0 0.00 0.00 0.00 24 1023.3
20260502111143 76 45 2.6 0.0 0.00 0.00 0.00 24 1023.4
20260502110624 76 57 5.2 0.0 0.00 0.00 0.00 23 1023.4
20260502110104 79 37 7.0 0.0 0.00 0.00 0.00 22 1023.4
20260502105630 79 3 1.7 0.0 0.00 0.00 0.00 19 1023.2
20260502105111 80 254 6.1 0.0 0.00 0.00 0.00 19 1023.5
20260502104636 79 194 3.5 0.0 0.00 0.00 0.00 20 1023.6
20260502104116 77 207 2.6 0.0 0.00 0.00 0.00 21 1023.7
20260502103642 77 259 6.1 0.0 0.00 0.00 0.00 19 1023.7
20260502103123 79 193 5.2 0.0 0.00 0.00 0.00 20 1023.8
20260502102603 77 263 6.1 0.0 0.00 0.00 0.00 21 1023.8
20260502102129 76 229 3.5 0.0 0.00 0.00 0.00 21 1023.8
20260502101609 75 221 7.0 0.0 0.00 0.00 0.00 22 1023.9
20260502101135 74 266 5.2 0.0 0.00 0.00 0.00 22 1024.0
20260502100615 74 308 3.5 0.0 0.00 0.00 0.00 22 1024.0
20260502100142 76 262 7.8 0.0 0.00 0.00 0.00 21 1024.1
20260502091129 72 232 4.3 0.0 0.00 0.00 0.00 25 1024.6
20260502090608 72 225 4.3 0.0 0.00 0.00 0.00 24 1024.7
20260502090135 72 256 3.5 0.0 0.00 0.00 0.00 26 1024.7
20260502071112 68 243 5.2 0.0 0.00 0.00 0.00 31 1025.2
20260502070638 69 258 7.0 0.0 0.00 0.00 0.00 30 1025.2
20260502070118 68 319 4.3 0.0 0.00 0.00 0.00 30 1025.2
20260502065645 68 322 1.7 0.0 0.00 0.00 0.00 31 1025.2
20260502065125 67 325 2.6 0.0 0.00 0.00 0.00 32 1025.3
20260502064605 67 261 6.1 0.0 0.00 0.00 0.00 32 1025.2
20260502064131 67 315 4.3 0.0 0.00 0.00 0.00 32 1025.3
20260502063611 67 256 2.6 0.0 0.00 0.00 0.00 34 1025.2
20260502063138 66 250 4.3 0.0 0.00 0.00 0.00 34 1025.3
20260502062617 66 271 6.1 0.0 0.00 0.00 0.00 34 1025.3
20260502062144 66 268 3.5 0.0 0.00 0.00 0.00 34 1025.5
20260502061624 65 267 3.5 0.0 0.00 0.00 0.00 35 1025.5
20260502061104 65 261 4.3 0.0 0.00 0.00 0.00 36 1025.5
20260502060631 64 238 2.6 0.0 0.00 0.00 0.00 36 1025.5
20260502060112 65 280 2.6 0.0 0.00 0.00 0.00 38 1025.5
20260502055639 64 261 2.6 0.0 0.00 0.00 0.00 37 1025.3
20260502055118 63 273 3.5 0.0 0.00 0.00 0.00 38 1025.3
20260502054644 63 326 2.6 0.0 0.00 0.00 0.00 40 1025.3
20260502054124 61 254 4.3 0.0 0.00 0.00 0.00 40 1025.3